When you browse on this site, cookies collect data to enhance your experience and personalize the content and advertising you see.
Visit our Privacy Policy to learn more. By continuing to use the site, you agree to this use of cookies and data.
  • In Austria
  • List of Countries
  • For 7 days
  • Water Temperature
  • Satellite Maps
  • Weather Map
  • News
  • Weather Widgets
  • user-avatar
    Login

    Hourly Weather Shusha

    Today, 25 May, Saturday

    Time Temperature Precipitation Wind Pressure Humidity
    00:00 +15°C° 0 mm 1 mps 660 mmHg 81%
    01:00 +14°C° 0 mm 1 mps 660 mmHg 79%
    02:00 +14°C° 0 mm 1 mps 659 mmHg 78%
    03:00 +14°C° 0 mm 2 mps 659 mmHg 74%
    04:00 +15°C° 0 mm 2 mps 659 mmHg 72%
    05:00 +16°C° 0 mm 1 mps 660 mmHg 70%
    06:00 +18°C° 0 mm 1 mps 660 mmHg 68%
    07:00 +19°C° 0 mm 1 mps 661 mmHg 64%
    08:00 +20°C° 0 mm 2 mps 661 mmHg 60%
    09:00 +23°C° 0 mm 2 mps 661 mmHg 56%
    10:00 +24°C° 0 mm 2 mps 661 mmHg 52%
    11:00 +26°C° 0 mm 3 mps 661 mmHg 49%
    12:00 +27°C° 0 mm 3 mps 661 mmHg 46%
    13:00 +27°C° 0 mm 3 mps 661 mmHg 46%
    14:00 +27°C° 0 mm 3 mps 661 mmHg 46%
    15:00 +28°C° 0 mm 3 mps 660 mmHg 47%
    16:00 +25°C° 0.4 mm 3 mps 660 mmHg 56%
    17:00 +23°C° 0.4 mm 2 mps 660 mmHg 66%
    18:00 +20°C° 0.4 mm 2 mps 659 mmHg 76%
    19:00 +20°C° 0 mm 2 mps 659 mmHg 75%
    20:00 +19°C° 0 mm 2 mps 659 mmHg 75%
    21:00 +18°C° 0 mm 2 mps 658 mmHg 74%
    22:00 +17°C° 0 mm 2 mps 658 mmHg 70%
    23:00 +17°C° 0 mm 2 mps 658 mmHg 66%

    Tomorrow, 26 May, Sunday

    Time Temperature Precipitation Wind Pressure Humidity
    00:00 +17°C° 0 mm 2 mps 658 mmHg 62%
    01:00 +16°C° 0 mm 2 mps 658 mmHg 62%
    02:00 +16°C° 0 mm 2 mps 658 mmHg 61%
    03:00 +15°C° 0 mm 2 mps 658 mmHg 61%
    04:00 +16°C° 0 mm 2 mps 658 mmHg 61%
    05:00 +17°C° 0 mm 2 mps 658 mmHg 61%
    06:00 +17°C° 0 mm 2 mps 659 mmHg 62%
    07:00 +19°C° 0 mm 2 mps 659 mmHg 57%
    08:00 +21°C° 0 mm 2 mps 659 mmHg 51%
    09:00 +25°C° 0 mm 2 mps 660 mmHg 46%
    10:00 +25°C° 0 mm 3 mps 660 mmHg 45%
    11:00 +26°C° 0 mm 3 mps 660 mmHg 43%
    12:00 +27°C° 0 mm 3 mps 660 mmHg 42%
    13:00 +25°C° 0.4 mm 3 mps 659 mmHg 50%
    14:00 +24°C° 0.4 mm 2 mps 658 mmHg 59%
    15:00 +21°C° 0.4 mm 2 mps 657 mmHg 68%
    16:00 +21°C° 0.1 mm 2 mps 657 mmHg 68%
    17:00 +21°C° 0.1 mm 2 mps 657 mmHg 68%
    18:00 +21°C° 0.1 mm 2 mps 657 mmHg 69%
    19:00 +19°C° 0.1 mm 2 mps 657 mmHg 74%
    20:00 +19°C° 0.1 mm 1 mps 658 mmHg 80%
    21:00 +16°C° 0.1 mm 1 mps 658 mmHg 85%
    22:00 +16°C° 0 mm 1 mps 658 mmHg 86%
    23:00 +15°C° 0 mm 1 mps 658 mmHg 87%

    Day after tomorrow, 27 May, Monday

    Time Temperature Precipitation Wind Pressure Humidity
    00:00 +15°C° 0 mm 2 mps 659 mmHg 89%
    01:00 +15°C° 0 mm 1 mps 659 mmHg 87%
    02:00 +14°C° 0 mm 1 mps 659 mmHg 86%
    03:00 +14°C° 0 mm 1 mps 659 mmHg 85%
    04:00 +15°C° 0 mm 1 mps 659 mmHg 83%
    05:00 +15°C° 0 mm 1 mps 660 mmHg 81%
    06:00 +16°C° 0 mm 1 mps 660 mmHg 79%
    07:00 +18°C° 0 mm 1 mps 661 mmHg 73%
    08:00 +18°C° 0 mm 2 mps 661 mmHg 68%
    09:00 +20°C° 0 mm 2 mps 662 mmHg 63%
    10:00 +20°C° 0.1 mm 3 mps 662 mmHg 61%
    11:00 +21°C° 0.1 mm 3 mps 662 mmHg 58%
    12:00 +22°C° 0.1 mm 3 mps 662 mmHg 56%
    13:00 +22°C° 0.4 mm 3 mps 661 mmHg 55%
    14:00 +22°C° 0.4 mm 3 mps 661 mmHg 54%
    15:00 +22°C° 0.4 mm 3 mps 661 mmHg 54%
    16:00 +21°C° 0.2 mm 3 mps 661 mmHg 56%
    17:00 +20°C° 0.2 mm 2 mps 661 mmHg 58%
    18:00 +20°C° 0.2 mm 2 mps 661 mmHg 61%
    19:00 +18°C° 0.1 mm 2 mps 661 mmHg 67%
    20:00 +16°C° 0.1 mm 1 mps 662 mmHg 74%
    21:00 +14°C° 0.1 mm 1 mps 662 mmHg 81%
    22:00 +14°C° 0.1 mm 1 mps 662 mmHg 82%
    23:00 +13°C° 0.1 mm 1 mps 662 mmHg 83%

    28 May, Tuesday

    Time Temperature Precipitation Wind Pressure Humidity
    00:00 +13°C° 0.1 mm 1 mps 662 mmHg 83%
    01:00 +13°C° 0 mm 1 mps 662 mmHg 84%
    02:00 +13°C° 0 mm 1 mps 662 mmHg 84%
    03:00 +12°C° 0 mm 1 mps 662 mmHg 84%
    04:00 +13°C° 0.2 mm 1 mps 662 mmHg 82%
    05:00 +14°C° 0.2 mm 1 mps 662 mmHg 80%
    06:00 +14°C° 0.2 mm 1 mps 663 mmHg 78%
    07:00 +15°C° 0 mm 1 mps 663 mmHg 74%
    08:00 +17°C° 0 mm 2 mps 664 mmHg 70%
    09:00 +18°C° 0 mm 2 mps 664 mmHg 66%
    10:00 +18°C° 0.1 mm 2 mps 664 mmHg 66%
    11:00 +18°C° 0.1 mm 3 mps 663 mmHg 66%
    12:00 +18°C° 0.1 mm 3 mps 663 mmHg 67%
    13:00 +18°C° 0.1 mm 3 mps 663 mmHg 65%
    14:00 +19°C° 0.1 mm 3 mps 663 mmHg 64%
    15:00 +19°C° 0.1 mm 3 mps 663 mmHg 63%
    16:00 +19°C° 0.1 mm 3 mps 663 mmHg 65%
    17:00 +18°C° 0.1 mm 2 mps 663 mmHg 68%
    18:00 +18°C° 0.1 mm 2 mps 663 mmHg 70%
    19:00 +18°C° 0.6 mm 1 mps 663 mmHg 75%
    20:00 +16°C° 0.6 mm 1 mps 663 mmHg 80%
    21:00 +13°C° 0.6 mm 0 mps 663 mmHg 84%
    22:00 +14°C° 0.4 mm 1 mps 663 mmHg 85%
    23:00 +14°C° 0.4 mm 1 mps 663 mmHg 86%

    29 May, Wednesday

    Time Temperature Precipitation Wind Pressure Humidity
    00:00 +13°C° 0.4 mm 1 mps 663 mmHg 87%
    01:00 +13°C° 0.1 mm 1 mps 663 mmHg 86%
    02:00 +13°C° 0.1 mm 1 mps 662 mmHg 86%
    03:00 +13°C° 0.1 mm 1 mps 662 mmHg 86%
    04:00 +13°C° 0.1 mm 1 mps 662 mmHg 84%
    05:00 +14°C° 0.1 mm 1 mps 663 mmHg 82%
    06:00 +14°C° 0.1 mm 1 mps 663 mmHg 79%
    07:00 +15°C° 0.1 mm 1 mps 663 mmHg 74%
    08:00 +17°C° 0.1 mm 2 mps 664 mmHg 68%
    09:00 +18°C° 0.1 mm 2 mps 664 mmHg 62%
    10:00 +19°C° 0.3 mm 2 mps 664 mmHg 61%
    11:00 +19°C° 0.3 mm 2 mps 664 mmHg 59%
    12:00 +20°C° 0.3 mm 2 mps 664 mmHg 58%
    13:00 +20°C° 0.5 mm 3 mps 663 mmHg 57%
    14:00 +21°C° 0.5 mm 3 mps 663 mmHg 56%
    15:00 +21°C° 0.5 mm 3 mps 663 mmHg 55%
    16:00 +20°C° 0.5 mm 2 mps 663 mmHg 59%
    17:00 +20°C° 0.5 mm 2 mps 663 mmHg 62%
    18:00 +19°C° 0.5 mm 2 mps 663 mmHg 66%
    19:00 +18°C° 0.4 mm 1 mps 663 mmHg 71%
    20:00 +16°C° 0.4 mm 1 mps 663 mmHg 75%
    21:00 +15°C° 0.4 mm 1 mps 663 mmHg 80%
    22:00 +14°C° 0.1 mm 1 mps 662 mmHg 80%
    23:00 +14°C° 0.1 mm 1 mps 662 mmHg 81%

    30 May, Thursday

    Time Temperature Precipitation Wind Pressure Humidity
    00:00 +14°C° 0.1 mm 2 mps 662 mmHg 81%
    01:00 +13°C° 0 mm 2 mps 662 mmHg 81%
    02:00 +13°C° 0 mm 2 mps 662 mmHg 80%
    03:00 +13°C° 0 mm 2 mps 662 mmHg 80%
    04:00 +13°C° 0 mm 2 mps 662 mmHg 78%
    05:00 +14°C° 0 mm 2 mps 662 mmHg 76%
    06:00 +15°C° 0 mm 1 mps 663 mmHg 74%
    07:00 +16°C° 0 mm 2 mps 663 mmHg 68%
    08:00 +18°C° 0 mm 2 mps 663 mmHg 62%
    09:00 +19°C° 0 mm 2 mps 663 mmHg 56%
    10:00 +20°C° 0 mm 2 mps 663 mmHg 54%
    11:00 +21°C° 0 mm 3 mps 663 mmHg 51%
    12:00 +22°C° 0 mm 3 mps 663 mmHg 49%
    13:00 +22°C° 0.3 mm 3 mps 663 mmHg 49%
    14:00 +22°C° 0.3 mm 3 mps 662 mmHg 48%
    15:00 +22°C° 0.3 mm 3 mps 662 mmHg 48%
    16:00 +21°C° 0.3 mm 2 mps 662 mmHg 52%
    17:00 +21°C° 0.3 mm 2 mps 662 mmHg 55%
    18:00 +21°C° 0.3 mm 1 mps 662 mmHg 59%
    19:00 +19°C° 0.2 mm 1 mps 662 mmHg 63%
    20:00 +18°C° 0.2 mm 1 mps 662 mmHg 66%
    21:00 +15°C° 0.2 mm 1 mps 661 mmHg 70%
    22:00 +14°C° 0.2 mm 2 mps 661 mmHg 72%
    23:00 +14°C° 0.2 mm 2 mps 661 mmHg 73%
    Show more